| time (UTC) | temp C | wind direction | speed KPH | gust KPH | rain 1hr cm | rain 24hr cm | rain mn cm | humidity % | barometer mb |
| 20260507094041 | 6 | 0.0 | 0.0 | 0.00 | 0.00 | 0.00 | 99 | 1018.0 | |
| 20260507093046 | 6 | 0.0 | 0.0 | 0.00 | 0.00 | 0.00 | 99 | 1018.1 | |
| 20260507092034 | 6 | 0.0 | 0.0 | 0.00 | 0.00 | 0.00 | 99 | 1018.0 | |
| 20260507091059 | 6 | 0.0 | 0.0 | 0.00 | 0.00 | 0.00 | 99 | 1018.1 | |
| 20260507090027 | 6 | 0.0 | 0.0 | 0.00 | 0.03 | 0.00 | 99 | 1018.0 | |
| 20260507085032 | 6 | 0.0 | 0.0 | 0.00 | 0.10 | 0.00 | 99 | 1017.9 | |
| 20260507084021 | 6 | 0.0 | 0.0 | 0.00 | 0.10 | 0.00 | 99 | 1017.8 | |
| 20260507083025 | 6 | 0.0 | 0.0 | 0.00 | 0.10 | 0.00 | 99 | 1017.4 | |
| 20260507082030 | 7 | 0.0 | 0.0 | 0.00 | 0.13 | 0.00 | 99 | 1017.5 | |
| 20260507081017 | 7 | 0.0 | 0.0 | 0.00 | 0.13 | 0.00 | 99 | 1017.5 | |
| 20260507080023 | 7 | 0.0 | 0.0 | 0.00 | 0.13 | 0.00 | 99 | 1017.4 | |
| 20260507075028 | 7 | 0.0 | 0.0 | 0.00 | 0.13 | 0.00 | 99 | 1017.4 | |
| 20260507074033 | 7 | 0.0 | 0.0 | 0.00 | 0.13 | 0.00 | 98 | 1017.3 | |
| 20260507073038 | 7 | 0.0 | 0.0 | 0.00 | 0.13 | 0.00 | 98 | 1017.3 | |
| 20260507072026 | 7 | 0.0 | 0.0 | 0.00 | 0.13 | 0.00 | 98 | 1017.3 | |
| 20260507071052 | 7 | 0.0 | 0.0 | 0.00 | 0.13 | 0.00 | 98 | 1017.4 | |
| 20260507070018 | 7 | 0.0 | 0.0 | 0.00 | 0.13 | 0.00 | 98 | 1017.4 | |
| 20260507065024 | 8 | 0.0 | 0.0 | 0.00 | 0.13 | 0.00 | 98 | 1017.4 | |
| 20260507064028 | 8 | 0.0 | 0.0 | 0.00 | 0.13 | 0.00 | 98 | 1017.6 | |
| 20260507063017 | 8 | 0.0 | 0.0 | 0.00 | 0.13 | 0.00 | 98 | 1017.6 | |
| 20260507062021 | 8 | 0.0 | 0.0 | 0.00 | 0.33 | 0.00 | 97 | 1017.6 | |
| 20260507061026 | 8 | 0.0 | 0.0 | 0.00 | 0.74 | 0.00 | 97 | 1017.7 | |
| 20260507060032 | 8 | 0.0 | 0.0 | 0.00 | 0.74 | 0.00 | 97 | 1017.7 | |
| 20260507055039 | 8 | 0.0 | 0.0 | 0.00 | 0.76 | 0.00 | 97 | 1017.6 | |
| 20260507054024 | 8 | 0.0 | 0.0 | 0.00 | 0.79 | 0.00 | 97 | 1017.6 | |
| 20260507053030 | 8 | 0.0 | 0.0 | 0.00 | 0.81 | 0.00 | 96 | 1017.5 | |
| 20260507052017 | 9 | 0.0 | 0.0 | 0.00 | 0.81 | 0.00 | 96 | 1017.4 | |
| 20260507051022 | 9 | 0.0 | 0.0 | 0.00 | 0.81 | 0.00 | 96 | 1017.4 | |
| 20260507050027 | 9 | 0.0 | 0.0 | 0.00 | 0.81 | 0.00 | 95 | 1017.5 | |
| 20260507045032 | 10 | 0.0 | 0.0 | 0.00 | 0.86 | 0.86 | 94 | 1017.5 | |
| 20260507044020 | 10 | 0.0 | 0.0 | 0.00 | 0.86 | 0.86 | 94 | 1017.6 | |
| 20260507043025 | 10 | 0.0 | 0.0 | 0.00 | 0.86 | 0.86 | 93 | 1017.7 | |
| 20260507042030 | 10 | 0.0 | 0.0 | 0.00 | 0.86 | 0.86 | 92 | 1017.6 | |
| 20260507041119 | 11 | 0.0 | 0.0 | 0.00 | 0.86 | 0.86 | 91 | 1017.3 | |
| 20260507040023 | 11 | 0.0 | 0.0 | 0.00 | 0.86 | 0.86 | 89 | 1017.2 | |
| 20260507035048 | 11 | 0.0 | 0.0 | 0.00 | 0.86 | 0.86 | 87 | 1017.3 | |
| 20260507034016 | 11 | 0.0 | 0.0 | 0.00 | 0.86 | 0.86 | 84 | 1017.2 | |
| 20260507033041 | 12 | 0.0 | 0.0 | 0.00 | 0.91 | 0.86 | 84 | 1017.1 | |
| 20260507032046 | 12 | 331 | 0.0 | 1.6 | 0.00 | 0.99 | 0.86 | 86 | 1017.3 |
| 20260507031031 | 12 | 0.0 | 0.0 | 0.00 | 1.04 | 0.86 | 86 | 1017.5 | |
| 20260507030020 | 11 | 0.0 | 0.0 | 0.00 | 1.07 | 0.86 | 86 | 1017.1 | |
| 20260507025023 | 12 | 0.0 | 0.0 | 0.00 | 1.09 | 0.86 | 86 | 1016.7 | |
| 20260507024029 | 12 | 0.0 | 0.0 | 0.00 | 1.09 | 0.86 | 86 | 1016.9 | |
| 20260507023017 | 12 | 0.0 | 0.0 | 0.00 | 1.14 | 0.86 | 87 | 1017.2 | |
| 20260507022022 | 12 | 0.0 | 0.0 | 0.00 | 1.14 | 0.86 | 86 | 1017.5 | |
| 20260507021026 | 12 | 0.0 | 0.0 | 0.00 | 1.19 | 0.86 | 86 | 1017.8 | |
| 20260507020031 | 12 | 330 | 0.0 | 1.6 | 0.00 | 1.19 | 0.86 | 84 | 1017.1 |
| 20260507015019 | 12 | 0.0 | 0.0 | 0.00 | 1.19 | 0.86 | 83 | 1017.0 | |
| 20260507014044 | 12 | 0.0 | 0.0 | 0.00 | 1.24 | 0.86 | 83 | 1017.1 | |
| 20260507013029 | 12 | 0.0 | 0.0 | 0.00 | 1.27 | 0.86 | 81 | 1016.7 | |
| 20260507012017 | 13 | 0.0 | 0.0 | 0.00 | 1.27 | 0.86 | 79 | 1016.8 | |
| 20260507011043 | 13 | 0.0 | 0.0 | 0.00 | 1.32 | 0.86 | 76 | 1017.0 | |
| 20260507010027 | 13 | 0.0 | 0.0 | 0.00 | 1.32 | 0.86 | 72 | 1017.0 | |
| 20260507005032 | 13 | 0.0 | 0.0 | 0.00 | 1.32 | 0.86 | 72 | 1016.9 | |
| 20260507004021 | 14 | 77 | 0.0 | 1.6 | 0.00 | 1.35 | 0.86 | 71 | 1016.7 |
| 20260507003025 | 14 | 0.0 | 0.0 | 0.00 | 1.35 | 0.86 | 69 | 1016.4 | |
| 20260507002030 | 14 | 346 | 0.0 | 1.6 | 0.00 | 1.37 | 0.86 | 68 | 1016.1 |
| 20260507001018 | 14 | 0.0 | 0.0 | 0.00 | 1.45 | 0.86 | 68 | 1015.8 | |
| 20260507000023 | 15 | 201 | 0.0 | 3.2 | 0.00 | 1.45 | 0.86 | 69 | 1015.6 |
| 20260506235028 | 15 | 308 | 0.0 | 1.6 | 0.00 | 1.47 | 0.86 | 69 | 1015.5 |
| 20260506234033 | 15 | 2 | 0.0 | 1.6 | 0.00 | 1.50 | 0.86 | 69 | 1015.4 |
| 20260506233021 | 15 | 0.0 | 0.0 | 0.00 | 1.52 | 0.86 | 68 | 1015.2 | |
| 20260506232026 | 15 | 0.0 | 0.0 | 0.00 | 1.55 | 0.86 | 66 | 1015.3 | |
| 20260506231031 | 15 | 0.0 | 0.0 | 0.00 | 1.60 | 0.86 | 66 | 1015.4 | |
| 20260506230019 | 16 | 0.0 | 1.6 | 0.00 | 1.68 | 0.86 | 65 | 1015.3 | |
| 20260506225023 | 16 | 90 | 0.0 | 1.6 | 0.00 | 1.88 | 0.86 | 64 | 1015.7 |
| 20260506224028 | 16 | 0.0 | 1.6 | 0.00 | 1.98 | 0.86 | 62 | 1015.6 | |
| 20260506223017 | 16 | 221 | 0.0 | 3.2 | 0.00 | 1.98 | 0.86 | 60 | 1015.6 |
| 20260506222022 | 17 | 38 | 0.0 | 1.6 | 0.00 | 1.98 | 0.86 | 61 | 1015.9 |
| 20260506221026 | 16 | 72 | 0.0 | 1.6 | 0.00 | 2.03 | 0.86 | 62 | 1015.8 |
| 20260506220032 | 16 | 0.0 | 0.0 | 0.00 | 2.03 | 0.86 | 64 | 1016.2 | |
| 20260506215019 | 15 | 297 | 0.0 | 1.6 | 0.00 | 2.06 | 0.86 | 64 | 1016.3 |
| 20260506214044 | 15 | 0.0 | 0.0 | 0.00 | 2.11 | 0.86 | 64 | 1016.3 | |
| 20260506213029 | 15 | 353 | 0.0 | 1.6 | 0.00 | 2.11 | 0.86 | 63 | 1016.1 |
| 20260506212017 | 15 | 297 | 0.0 | 1.6 | 0.00 | 2.13 | 0.86 | 64 | 1016.5 |
| 20260506211022 | 15 | 0.0 | 0.0 | 0.00 | 2.13 | 0.86 | 64 | 1016.7 | |
| 20260506210028 | 15 | 0.0 | 0.0 | 0.00 | 2.13 | 0.86 | 64 | 1016.8 | |
| 20260506205032 | 15 | 340 | 1.6 | 3.2 | 0.00 | 2.13 | 0.86 | 65 | 1016.6 |
| 20260506204021 | 15 | 323 | 0.0 | 1.6 | 0.00 | 2.16 | 0.86 | 66 | 1016.8 |
| 20260506203026 | 15 | 322 | 1.6 | 4.8 | 0.00 | 2.16 | 0.86 | 65 | 1016.8 |
| 20260506202050 | 15 | 328 | 3.2 | 9.7 | 0.00 | 2.18 | 0.86 | 65 | 1015.9 |
| 20260506201019 | 15 | 331 | 1.6 | 3.2 | 0.00 | 2.18 | 0.86 | 63 | 1015.9 |
| 20260506200023 | 15 | 329 | 1.6 | 4.8 | 0.00 | 2.18 | 0.86 | 65 | 1016.5 |
| 20260506195028 | 15 | 332 | 0.0 | 3.2 | 0.00 | 2.18 | 0.86 | 67 | 1016.8 |
| 20260506194016 | 15 | 348 | 0.0 | 3.2 | 0.00 | 2.18 | 0.86 | 67 | 1016.9 |
| 20260506193021 | 15 | 341 | 1.6 | 6.4 | 0.00 | 2.18 | 0.86 | 66 | 1016.9 |
| 20260506192027 | 15 | 319 | 1.6 | 6.4 | 0.00 | 2.21 | 0.86 | 66 | 1016.8 |
| 20260506191034 | 15 | 0.0 | 4.8 | 0.00 | 2.21 | 0.86 | 66 | 1016.5 | |
| 20260506190019 | 16 | 341 | 1.6 | 4.8 | 0.00 | 2.21 | 0.86 | 64 | 1016.6 |
| 20260506185024 | 16 | 254 | 0.0 | 3.2 | 0.00 | 2.21 | 0.86 | 65 | 1016.3 |
| 20260506184049 | 16 | 83 | 0.0 | 3.2 | 0.00 | 2.21 | 0.86 | 64 | 1016.6 |
| 20260506183017 | 16 | 339 | 4.8 | 14.5 | 0.00 | 2.21 | 0.86 | 65 | 1016.5 |
| 20260506182042 | 17 | 353 | 0.0 | 4.8 | 0.00 | 2.21 | 0.86 | 63 | 1016.5 |
| 20260506181027 | 16 | 284 | 0.0 | 3.2 | 0.00 | 2.21 | 0.86 | 65 | 1016.4 |
| 20260506180032 | 16 | 49 | 1.6 | 4.8 | 0.00 | 2.21 | 0.86 | 65 | 1016.6 |
| 20260506175020 | 16 | 302 | 1.6 | 6.4 | 0.00 | 2.21 | 0.86 | 65 | 1016.8 |
| 20260506174025 | 16 | 203 | 0.0 | 3.2 | 0.00 | 2.21 | 0.86 | 65 | 1016.9 |
| 20260506173029 | 15 | 331 | 1.6 | 4.8 | 0.00 | 2.21 | 0.86 | 67 | 1016.8 |
| 20260506172017 | 15 | 353 | 1.6 | 4.8 | 0.00 | 2.21 | 0.86 | 69 | 1016.6 |
| 20260506171043 | 15 | 270 | 0.0 | 1.6 | 0.00 | 2.21 | 0.86 | 69 | 1016.7 |
| 20260506170028 | 15 | 306 | 1.6 | 3.2 | 0.00 | 2.24 | 0.86 | 69 | 1016.4 |
| 20260506165032 | 14 | 334 | 1.6 | 4.8 | 0.00 | 2.26 | 0.86 | 71 | 1016.4 |
| 20260506164020 | 14 | 309 | 1.6 | 11.3 | 0.00 | 2.41 | 0.86 | 73 | 1016.8 |
| 20260506163025 | 15 | 301 | 1.6 | 4.8 | 0.00 | 2.46 | 0.86 | 72 | 1016.5 |
| 20260506162031 | 15 | 88 | 1.6 | 4.8 | 0.00 | 2.46 | 0.86 | 73 | 1016.8 |
| 20260506161018 | 15 | 277 | 1.6 | 3.2 | 0.00 | 2.46 | 0.86 | 74 | 1017.0 |
| 20260506160024 | 13 | 50 | 0.0 | 4.8 | 0.00 | 2.46 | 0.86 | 77 | 1016.6 |
| 20260506155109 | 13 | 305 | 0.0 | 3.2 | 0.00 | 2.46 | 0.86 | 78 | 1016.8 |
| 20260506154016 | 13 | 148 | 0.0 | 4.8 | 0.00 | 2.51 | 0.86 | 78 | 1016.7 |
| 20260506153022 | 13 | 308 | 1.6 | 3.2 | 0.00 | 2.54 | 0.86 | 79 | 1016.5 |
| 20260506152026 | 12 | 311 | 1.6 | 3.2 | 0.00 | 2.54 | 0.86 | 80 | 1016.8 |
| 20260506151031 | 12 | 220 | 1.6 | 4.8 | 0.00 | 2.57 | 0.86 | 80 | 1016.9 |
| 20260506150019 | 12 | 296 | 1.6 | 6.4 | 0.00 | 2.57 | 0.86 | 81 | 1016.8 |
| 20260506145024 | 12 | 11 | 1.6 | 6.4 | 0.00 | 2.57 | 0.86 | 84 | 1016.6 |
| 20260506144110 | 11 | 183 | 0.0 | 6.4 | 0.00 | 2.57 | 0.86 | 89 | 1016.7 |
| 20260506143017 | 11 | 334 | 1.6 | 6.4 | 0.00 | 2.57 | 0.86 | 92 | 1016.6 |
| 20260506142022 | 11 | 23 | 0.0 | 3.2 | 0.00 | 2.59 | 0.86 | 96 | 1016.0 |
| 20260506141028 | 10 | 298 | 1.6 | 4.8 | 0.00 | 2.59 | 0.86 | 96 | 1015.8 |
| 20260506140032 | 10 | 78 | 0.0 | 3.2 | 0.00 | 2.69 | 0.86 | 99 | 1015.4 |
| 20260506135040 | 10 | 332 | 1.6 | 4.8 | 0.00 | 3.12 | 0.86 | 99 | 1015.6 |
| 20260506134025 | 9 | 308 | 1.6 | 3.2 | 0.00 | 3.28 | 0.86 | 99 | 1015.0 |
| 20260506133030 | 9 | 286 | 1.6 | 3.2 | 0.00 | 3.43 | 0.86 | 99 | 1014.7 |
| 20260506132018 | 8 | 0.0 | 3.2 | 0.00 | 3.53 | 0.86 | 99 | 1015.0 | |
| 20260506131023 | 8 | 0.0 | 0.0 | 0.00 | 3.53 | 0.86 | 99 | 1015.1 | |
| 20260506130028 | 8 | 0.0 | 0.0 | 0.00 | 3.53 | 0.86 | 99 | 1014.6 | |
| 20260506125053 | 8 | 0.0 | 0.0 | 0.00 | 3.53 | 0.86 | 99 | 1015.1 | |
| 20260506124042 | 8 | 0.0 | 0.0 | 0.00 | 3.53 | 0.86 | 99 | 1014.9 | |
| 20260506123026 | 8 | 0.0 | 0.0 | 0.00 | 3.53 | 0.86 | 99 | 1014.7 | |
| 20260506122030 | 8 | 0.0 | 0.0 | 0.00 | 3.53 | 0.86 | 99 | 1014.8 | |
| 20260506121019 | 8 | 289 | 0.0 | 1.6 | 0.00 | 3.53 | 0.86 | 99 | 1014.8 |
| 20260506120044 | 7 | 0.0 | 0.0 | 0.00 | 3.53 | 0.86 | 99 | 1014.1 | |
| 20260506115049 | 7 | 0.0 | 0.0 | 0.00 | 3.53 | 0.86 | 99 | 1014.2 | |
| 20260506114033 | 7 | 0.0 | 0.0 | 0.00 | 3.53 | 0.86 | 99 | 1014.2 | |
| 20260506113042 | 7 | 0.0 | 0.0 | 0.00 | 3.53 | 0.86 | 99 | 1014.1 | |
| 20260506112027 | 7 | 0.0 | 0.0 | 0.00 | 3.53 | 0.86 | 99 | 1014.0 | |
| 20260506111031 | 7 | 0.0 | 0.0 | 0.00 | 3.53 | 0.86 | 99 | 1013.8 | |
| 20260506110019 | 7 | 0.0 | 0.0 | 0.00 | 3.53 | 0.86 | 99 | 1013.3 | |
| 20260506105024 | 7 | 0.0 | 0.0 | 0.00 | 3.53 | 0.86 | 99 | 1013.5 | |
| 20260506104029 | 7 | 0.0 | 0.0 | 0.00 | 3.53 | 0.86 | 99 | 1013.7 | |
| 20260506103034 | 7 | 316 | 0.0 | 1.6 | 0.00 | 3.53 | 0.86 | 99 | 1013.6 |
| 20260506102022 | 7 | 166 | 0.0 | 1.6 | 0.00 | 3.53 | 0.86 | 99 | 1013.0 |
| 20260506101030 | 7 | 0.0 | 0.0 | 0.00 | 3.53 | 0.86 | 99 | 1013.4 | |
| 20260506100032 | 7 | 288 | 0.0 | 1.6 | 0.03 | 3.53 | 0.86 | 99 | 1013.2 |
| 20260506095020 | 7 | 0.0 | 0.0 | 0.10 | 3.53 | 0.86 | 99 | 1013.6 |